FW3929 Weather Reports


time (UTC)temp
C
wind
direction
speed
KPH
gust
KPH
rain 1hr
cm
rain 24hr
cm
rain mn
cm
humidity
%
barometer
mb
20260508173025 12 106 4.8 17.7 0.00 3.12 0.00 69 1001.8
20260508171528 12 105 4.8 20.9 0.00 3.12 0.00 70 1001.9
20260508170023 13 95 9.7 17.7 0.00 3.12 0.00 72 1002.2
20260508164520 12 117 6.4 17.7 0.00 3.12 0.00 73 1002.1
20260508163018 12 87 4.8 17.7 0.00 3.12 0.00 74 1002.1
20260508161514 11 85 3.2 14.5 0.00 3.12 0.00 77 1002.1
20260508160028 11 105 3.2 11.3 0.00 3.12 0.00 79 1002.3
20260508154513 10 76 3.2 12.9 0.00 3.12 0.00 80 1002.2
20260508153011 11 103 3.2 14.5 0.00 3.12 0.00 80 1002.3
20260508151511 11 121 3.2 16.1 0.00 3.12 0.00 81 1002.2
20260508150015 11 89 8.0 16.1 0.00 3.12 0.00 80 1002.2
20260508144509 11 95 4.8 16.1 0.00 3.12 0.00 82 1002.3
20260508143007 11 58 4.8 16.1 0.00 3.12 0.00 83 1002.4
20260508141505 11 136 3.2 12.9 0.00 3.12 0.00 84 1002.5
20260508140100 10 95 6.4 11.3 0.00 3.12 0.00 87 1002.7
20260508134556 9 99 3.2 9.7 0.00 3.12 0.00 93 1003.0
20260508133058 8 105 1.6 9.7 0.00 3.12 0.00 97 1003.0
20260508131551 9 141 1.6 6.4 0.00 3.12 0.00 99 1003.1
20260508130054 8 104 1.6 9.7 0.00 3.12 0.00 100 1002.8
20260508124548 7 112 3.2 9.7 0.00 3.15 0.00 100 1002.7
20260508123047 7 104 1.6 9.7 0.00 3.15 0.00 100 1002.8
20260508121646 7 95 3.2 9.7 0.00 3.15 0.00 100 1002.5
20260508120045 6 106 0.0 0.0 0.00 3.15 0.00 100 1003.1
20260508114545 6 100 0.0 0.0 0.00 3.20 0.00 100 1003.2
20260508113046 6 82 0.0 0.0 0.00 3.20 0.00 100 1003.2
20260508111544 6 67 0.0 0.0 0.00 3.20 0.00 100 1002.8
20260508110051 6 97 0.0 1.6 0.00 3.20 0.00 100 1003.1
20260508104543 5 97 0.0 0.0 0.00 3.35 0.00 100 1003.2
20260508103043 5 99 0.0 0.0 0.00 3.35 0.00 100 1003.4
20260508101541 5 99 0.0 0.0 0.00 3.35 0.00 100 1003.2
20260508100040 5 99 0.0 0.0 0.00 3.35 0.00 100 1003.4
20260508094542 5 101 0.0 6.4 0.00 3.35 0.00 100 1003.0
20260508093038 5 89 0.0 8.0 0.00 3.35 0.00 100 1003.0
20260508091538 5 83 1.6 8.0 0.00 3.35 0.00 99 1002.8
20260508090035 5 66 3.2 9.7 0.00 3.35 0.00 99 1002.7
20260508084533 5 72 3.2 8.0 0.00 3.40 0.00 100 1002.7
20260508083112 5 41 1.6 8.0 0.00 3.40 0.00 100 1002.5
20260508081527 6 91 3.2 9.7 0.00 3.40 0.00 99 1002.3
20260508080024 6 76 1.6 8.0 0.00 3.40 0.00 100 1002.4
20260508074530 6 61 3.2 12.9 0.00 3.48 0.00 100 1002.2
20260508073023 7 54 1.6 8.0 0.00 3.48 0.00 100 1002.3
20260508071524 7 15 0.0 0.0 0.00 3.48 0.00 100 1002.2
20260508070018 7 17 0.0 4.8 0.00 3.48 0.00 100 1002.2
20260508064536 7 291 0.0 0.0 0.00 3.48 0.00 100 1002.0
20260508063013 7 291 0.0 0.0 0.00 3.48 0.00 100 1002.1
20260508061512 7 291 0.0 0.0 0.00 3.48 0.00 100 1002.0
20260508060012 7 291 0.0 0.0 0.00 3.48 0.00 100 1002.2
20260508054511 7 280 1.6 4.8 0.00 3.48 0.00 100 1002.2
20260508053009 7 278 1.6 4.8 0.00 3.48 0.00 100 1002.1
20260508051507 7 276 1.6 4.8 0.00 3.48 0.00 100 1001.8
20260508050006 8 274 0.0 0.0 0.00 3.48 0.00 100 1001.8
20260508044503 8 274 0.0 0.0 0.00 3.48 0.00 100 1001.8
20260508043001 8 274 0.0 0.0 0.00 3.48 0.00 100 1001.9
20260508041605 8 274 0.0 0.0 0.00 3.48 0.00 100 1002.2
20260508040111 8 274 0.0 0.0 0.00 3.48 0.00 100 1002.2
20260508034558 8 274 0.0 0.0 0.00 3.48 0.00 100 1002.4
20260508033101 8 274 0.0 0.0 0.00 3.48 0.00 100 1002.3
20260508031553 8 274 0.0 0.0 0.00 3.48 0.00 100 1002.5
20260508030107 8 274 0.0 6.4 0.00 3.48 0.00 100 1002.7
20260508024600 8 307 0.0 4.8 0.00 3.48 3.48 100 1002.7
20260508023048 8 309 0.0 4.8 0.00 3.48 3.48 99 1002.7
20260508021546 8 289 0.0 3.2 0.00 3.48 3.48 99 1002.4
20260508020047 8 289 0.0 3.2 0.00 3.48 3.48 100 1002.4
20260508014546 8 282 0.0 0.0 0.00 3.48 3.48 100 1002.4
20260508013043 8 289 1.6 8.0 0.00 3.48 3.48 100 1002.5
20260508011556 8 226 0.0 4.8 0.00 3.48 3.48 100 1002.1
20260508010055 8 248 3.2 9.7 0.00 3.48 3.48 100 1002.5
20260508004554 8 282 0.0 6.4 0.00 3.48 3.48 99 1002.7
20260508003042 8 284 0.0 6.4 0.00 3.48 3.48 100 1002.7
20260508001542 8 304 1.6 6.4 0.00 3.48 3.48 99 1002.8
20260508000038 9 316 0.0 0.0 0.00 3.48 3.48 100 1002.6
20260507234537 9 316 1.6 6.4 0.00 3.48 3.48 99 1002.9
20260507233036 10 262 0.0 6.4 0.00 3.48 3.48 100 1003.0
20260507231539 10 274 0.0 4.8 0.00 3.48 3.48 99 1002.5
20260507230037 10 284 0.0 9.7 0.00 3.48 3.48 100 1003.0
20260507224539 10 220 4.8 14.5 0.00 3.48 3.48 100 1002.9
20260507223033 10 201 1.6 14.5 0.03 3.48 3.48 100 1002.9
20260507221536 10 239 4.8 12.9 0.03 3.48 3.48 100 1003.2
20260507220032 10 268 3.2 17.7 0.05 3.48 3.48 99 1003.2
20260507214531 10 309 3.2 9.7 0.08 3.48 3.48 99 1003.4
20260507213032 10 207 3.2 11.3 0.10 3.45 3.45 99 1003.4
20260507211529 10 158 3.2 14.5 0.23 3.45 3.45 99 1002.9
20260507210029 9 145 6.4 16.1 0.38 3.43 3.43 99 1002.3
20260507204526 9 181 0.0 6.4 0.66 3.40 3.40 99 1002.9
20260507203022 9 162 1.6 8.0 0.99 3.35 3.35 99 1003.5
20260507201522 9 153 3.2 11.3 1.30 3.23 3.23 99 1004.0
20260507200031 9 190 3.2 12.9 1.52 3.05 3.05 99 1004.3
20260507194518 9 219 3.2 16.1 1.50 2.72 2.72 99 1004.8
20260507193019 9 230 4.8 20.9 1.40 2.34 2.34 99 1005.3
20260507191515 9 234 8.0 33.8 1.40 1.91 1.91 99 1005.9
20260507190031 10 220 4.8 19.3 1.09 1.50 1.50 98 1005.7
20260507184513 10 255 4.8 24.1 0.84 1.19 1.19 98 1005.8
20260507183018 11 196 8.0 24.1 0.58 0.94 0.94 99 1006.2
20260507181510 11 176 6.4 25.7 0.13 0.48 0.48 98 1005.7
20260507180012 11 141 11.3 25.7 0.05 0.41 0.41 98 1004.9
20260507174511 11 183 11.3 24.1 0.00 0.36 0.36 99 1004.9